Location: Unspecified
(41.9031°N, 12.4386°E)
Time: 12:46:39
(UTC+02:00)

ISS - Pass Details

Date: 05 August 2021
Orbit: 419 x 423 km, 51.6° (Epoch: 21 September)

Event Time Altitude Azimuth Distance (km) Brightness Sun altitude
Rises 20:39:54 0° 295° (WNW) 2,378 3.5 -3.6°
Reaches altitude 10° 20:42:16 10° 280° (W) 1,508 0.6 -3.9°
Maximum altitude 20:45:01 23° 226° (SW) 943 -1.7 -4.4°
Drops below altitude 10° 20:47:45 10° 171° (S) 1,496 -1.3 -4.9°
Enters shadow 20:49:55 - 157° (SSE) 2,284 -0.5 -5.2°
